星链-2140 (STARLINK-2140 )

导读 | 星芒AI

STARLINK-2140 是 SpaceX Starlink 项目中的一颗低轨通信卫星,属于第二代 Starlink 卫星(Gen2)系列。该卫星旨在为全球用户提供高速、低延迟的互联网服务,支持偏远地区和高需求区域的网络接入。它搭载了先进通信设备和激光链路,以提升数据传输效率和系统稳定性。STARLINK-2140 于近期成功发射并进入预定轨道,进一步扩展了 Starlink 卫星网络的覆盖范围和性能。

基本信息
目录编号:
47730
目录名称:
STARLINK-2140
国际标识:
2021-017J
轨道中心:
EARTH
卫星名称:
星链-2140
卫星全名:
星链-2140 (STARLINK-2140 )
卫星状态:
在轨 (已飞行1749 天)
发射日期:
2021-03-04 UTC
国别 :
美国 (US)
星等 :
--
轨道信息
数据来源 国际轨道数据 AOE轨道数据
星历时间 2025-12-16T07:57:25+0800
1天前
查看轨道信息
2025-12-14T18:00:00+0800
2天前
查看轨道信息
半长轴 6925.367km 6925.344km
偏心率 0.0001629 0.0001735
轨道倾角 53.055° 53.053°
近地点辐角 88.315° 85.197°
升交点赤经 232.335° 239.434°
平近点角 271.803° 333.487°
近地点 546.103km 546.007km
远地点 548.361km 548.411km
周期 95.593分钟 95.592分钟
每日圈数 15.063943 15.064017
详细信息
固有亮度:
5
最大亮度:
2.5
卫星平台:
Starlink V1.0
覆盖范围:
全球
运营商:
太空探索技术公司
运营商所在国:
美国
制造商(研发单位):
太空探索技术公司
制造商所在国:
美国
使用方式:
暂无
卫星简介
星链(Starlink)计划是由太空探索技术公司(SpaceX)提出的一个巨型低轨卫星互联网星座项目,计划在2019年至2024年间在太空搭建由约1.2万颗卫星组成的“星链”网络,其中1584颗将部署在地球上空550千米处的近地轨道,并从2020年开始工作。该卫星仍在工作。
2D轨道图
3D轨道图
轨道高度分析图
轨道倾角分析图
轨道综合分析图
查看轨道综合分析图